Regional Weather Roundup
Issued by NWS

Home | Current Version | Previous Version | Text Only | Print | Product List | Glossary On
Versions: 1 2 3 4 5 6 7 8 9 10 11 12 13 14 15 16 17 18 19 20 21 22 23 24 25 26 27 28 29 30 31 32 33 34 35 36 37 38 39 40 41 42 43 44 45 46 47 48 49 50
000
ASUS45 KABQ 261510
RWRNM
NEW MEXICO REGIONAL WEATHER ROUNDUP
NATIONAL WEATHER SERVICE ALBUQUERQUE NM
900 AM MDT THU APR 26 2018

NOTE: "FAIR" MEANS FEW OR NO CLOUDS BELOW 12,000 FEET AGL WITH NO
       SIGNIFICANT WEATHER OR OBSTRUCTIONS TO VISION.

      THIS PRODUCT IS RELEASED AS TWO VERSIONS.  ONE VERSION NEAR
      THE TOP OF THE HOUR CONTAINING PRELIMINARY DATA FROM ALBUQUERQUE
      AND OTHER STATIONS.  A FINAL VERSION WITH ADDITIONAL DATA IS
      ISSUED ABOUT 10 MINUTES AFTER THE HOUR.

NMZ501-503-504-510>518-261600-
NORTHWEST PLATEAU/NORTHCENTRAL MOUNTAINS

CITY           SKY/WX    TMP DP  RH WIND       PRES   REMARKS
FARMINGTON     FAIR      53   6  15 W9        30.12S
LOS ALAMOS     FAIR      53   9  16 NE6       30.17S
SANTA FE       FAIR      58  18  21 N10       30.13R
TAOS           FAIR      49  19  30 VRB3      30.19F
ANGEL FIRE     FAIR      46   8  21 CALM      30.20S

$$
NMZ402-403-502-505>509-261600-
WESTCENTRAL MOUNTAINS/SOUTHWEST MOUNTAINS

CITY           SKY/WX    TMP DP  RH WIND       PRES   REMARKS
GALLUP         FAIR      52   4  14 CALM      30.19F
GRANTS         FAIR      50   1  13 NW3       30.20F
SILVER CITY    FAIR      64  30  28 CALM      30.13S

$$
NMZ407-409-411-412-261600-
SOUTHERN DESERTS

CITY           SKY/WX    TMP DP  RH WIND       PRES   REMARKS
DEMING         FAIR      60  38  43 CALM      30.10R
LAS CRUCES     FAIR      62  37  38 SE6       30.11S
HOLLOMAN AFB   FAIR      61  39  44 N3        30.12S
ALAMOGORDO     FAIR      57  37  47 N8        30.11S
T OR C         FAIR      62  34  35 S7        30.09F

$$
NMZ519>523-261600-
CENTRAL VALLEYS/CENTRAL HIGHLANDS

CITY           SKY/WX    TMP DP  RH WIND       PRES   REMARKS
ALBUQUERQUE    FAIR      57  32  38 CALM      30.13R
DOUBLE EAGLE   SUNNY     59  16  18 CALM      30.15R
MORIARTY ARPT  FAIR      63  16  16 N6        30.14R
CLINES CORNERS FAIR      55  16  21 NW17      30.17R
BELEN          FAIR      59  28  30 CALM      30.13R
SOCORRO        FAIR      59  34  39 SE5       30.11F

$$
NMZ524>526-539-540-261600-
SOUTHCENTRAL MOUNTAINS

CITY           SKY/WX    TMP DP  RH WIND       PRES   REMARKS
RUIDOSO        FAIR      59  28  31 NW12      30.17S

$$
NMZ527>531-261600-
NORTHEAST HIGHLANDS/NORTHEAST PLAINS

CITY           SKY/WX    TMP DP  RH WIND       PRES   REMARKS
LAS VEGAS      FAIR      58  10  15 NW12      30.11S
RATON          FAIR      50  22  33 N33G45    30.14R
CLAYTON        FAIR      51  26  37 N36G49    30.05R

$$
NMZ532>537-261600-
EASTCENTRAL PLAINS

CITY           SKY/WX    TMP DP  RH WIND       PRES   REMARKS
SANTA ROSA     FAIR      56  33  41 W3        30.02F
TUCUMCARI      FAIR      64  38  38 W12       29.98R
CANNON AFB     FAIR      58  39  48 W16       30.03S
CLOVIS AIRPORT FAIR      59  38  45 W22       30.02S

$$
NMZ028-029-538-261600-
SOUTHEAST PLAINS

CITY           SKY/WX    TMP DP  RH WIND       PRES   REMARKS
ROSWELL        FAIR      56  37  49 S8        30.01S
ARTESIA        FAIR      61  39  44 SE10      30.03S
CARLSBAD       FAIR      62  36  37 S14       30.01F
HOBBS          SUNNY     59  37  44 S17G24    30.04F


$$




USA.gov is the U.S. government's official web portal to all federal, state and local government web resources and services.